Danville, KY

3:32 AM EDT on September 16, 2019 (GMT -0400)
Powell

Weather History for KDVK - August, 2019

Change the Weather History Date:

Saturday, August 24, 2019

  Actual Average (KLEX) Record (KLEX)
Temperature  
Mean Temperature 68 °F -  
Max Temperature 78 °F 83 °F 99 °F (1936)
Min Temperature 57 °F 64 °F 50 °F (1952)
Cooling Degree Days 2    
Growing Degree Days 18 (Base 50)    
Moisture  
Dew Point 55 °F    
Average Humidity 66    
Maximum Humidity 94    
Minimum Humidity 41    
Precipitation  
Precipitation 0.00 in - - ()
Sea Level Pressure  
Sea Level Pressure 30.15 in    
Wind  
Wind Speed 6 mph (ENE)    
Max Wind Speed 15 mph    
Max Gust Speed 20 mph    
Visibility 10 miles    
Events      
Averages and records for this station are not official NWS values.
T = Trace of Precipitation, MM = Missing Value Source: NWS Daily Summary

Daily Weather History Graph

Daily Weather History Graph

Search for Another Location

Airport or City:

Astronomy

Aug. 24, 2019 Rise Set
Actual Time 7:02 AM EDT 8:19 PM EDT
Civil Twilight 6:35 AM EDT 8:47 PM EDT
Nautical Twilight 6:02 AM EDT 9:19 PM EDT
Astronomical Twilight 5:28 AM EDT 9:53 PM EDT
Moon 12:57 AM EDT (8/24) 3:31 PM EDT (8/24)
Length of Visible Light 14h 11m
Length of Day
13h 17m
Last Quarter, 39% of the Moon is Illuminated
Aug 24
Last Quarter
Aug 30
New
Sep 5
First Quarter
Sep 14
Full
Sep 21
Last Quarter

Hourly Weather History & Observations

Time (EDT) Temp. Dew Point Humidity Pressure Visibility Wind Dir Wind Speed Gust Speed Precip Events Conditions
12:15 AM 64.4 °F 59.0 °F 83% 30.15 in 10.0 mi ENE 4.6 mph - N/A   Overcast
12:35 AM 64.4 °F 59.0 °F 83% 30.15 in 10.0 mi ENE 5.8 mph - N/A   Overcast
12:55 AM 64.4 °F 59.0 °F 83% 30.15 in 10.0 mi ENE 6.9 mph - N/A   Overcast
1:15 AM 64.4 °F 59.0 °F 83% 30.15 in 10.0 mi ENE 4.6 mph - N/A   Overcast
1:35 AM 64.4 °F 59.0 °F 83% 30.15 in 10.0 mi ENE 3.5 mph - N/A   Overcast
2:35 AM 64.4 °F 59.0 °F 83% 30.15 in 10.0 mi ENE 3.5 mph - N/A   Overcast
2:55 AM 62.6 °F 59.0 °F 88% 30.14 in 10.0 mi ENE 3.5 mph - N/A   Overcast
3:15 AM 62.6 °F 59.0 °F 88% 30.14 in 10.0 mi ENE 3.5 mph - N/A   Overcast
3:35 AM 62.6 °F 59.0 °F 88% 30.14 in 10.0 mi NE 4.6 mph - N/A   Overcast
3:55 AM 60.8 °F 59.0 °F 94% 30.14 in 10.0 mi NE 5.8 mph - N/A   Scattered Clouds
4:15 AM 60.8 °F 59.0 °F 94% 30.14 in 10.0 mi NE 5.8 mph - N/A   Clear
4:35 AM 60.8 °F 57.2 °F 88% 30.14 in 10.0 mi NE 3.5 mph - N/A   Clear
4:55 AM 59.0 °F 55.4 °F 88% 30.14 in 10.0 mi NNE 4.6 mph - N/A   Clear
5:15 AM 59.0 °F 55.4 °F 88% 30.15 in 10.0 mi NE 5.8 mph - N/A   Clear
5:35 AM 59.0 °F 55.4 °F 88% 30.15 in 10.0 mi NE 5.8 mph - N/A   Clear
6:15 AM 59.0 °F 53.6 °F 82% 30.15 in 10.0 mi NE 6.9 mph - N/A   Clear
6:35 AM 59.0 °F 53.6 °F 82% 30.16 in 10.0 mi NE 5.8 mph - N/A   Clear
6:55 AM 57.2 °F 53.6 °F 88% 30.16 in 10.0 mi NE 5.8 mph - N/A   Clear
7:15 AM 57.2 °F 53.6 °F 88% 30.17 in 10.0 mi NE 6.9 mph - N/A   Clear
7:35 AM 57.2 °F 53.6 °F 88% 30.18 in 10.0 mi NE 6.9 mph - N/A   Clear
7:55 AM 59.0 °F 53.6 °F 82% 30.18 in 10.0 mi ENE 4.6 mph - N/A   Clear
8:15 AM 59.0 °F 53.6 °F 82% 30.19 in 10.0 mi ENE 5.8 mph - N/A   Clear
8:35 AM 60.8 °F 53.6 °F 77% 30.18 in 10.0 mi NE 6.9 mph - N/A   Clear
8:55 AM 60.8 °F 53.6 °F 77% 30.18 in 10.0 mi ENE 10.4 mph - N/A   Clear
9:15 AM 62.6 °F 53.6 °F 72% 30.19 in 10.0 mi East 10.4 mph - N/A   Clear
9:35 AM 64.4 °F 53.6 °F 68% 30.19 in 10.0 mi East 10.4 mph - N/A   Clear
9:55 AM 68.0 °F 55.4 °F 64% 30.18 in 10.0 mi East 11.5 mph - N/A   Clear
10:15 AM 68.0 °F 55.4 °F 64% 30.19 in 10.0 mi ENE 10.4 mph - N/A   Clear
10:35 AM 69.8 °F 55.4 °F 60% 30.19 in 10.0 mi East 9.2 mph - N/A   Clear
10:55 AM 69.8 °F 55.4 °F 60% 30.19 in 10.0 mi East 10.4 mph - N/A   Clear
11:15 AM 71.6 °F 55.4 °F 57% 30.19 in 10.0 mi ENE 15.0 mph 19.6 mph N/A   Clear
11:35 AM 73.4 °F 55.4 °F 53% 30.18 in 10.0 mi East 12.7 mph - N/A   Clear
11:55 AM 73.4 °F 55.4 °F 53% 30.18 in 10.0 mi East 10.4 mph 18.4 mph N/A   Clear
12:15 PM 73.4 °F 55.4 °F 53% 30.18 in 10.0 mi ENE 11.5 mph - N/A   Clear
12:35 PM 75.2 °F 55.4 °F 50% 30.17 in 10.0 mi ENE 12.7 mph 18.4 mph N/A   Clear
12:55 PM 75.2 °F 55.4 °F 50% 30.16 in 10.0 mi NE 12.7 mph 17.3 mph N/A   Clear
1:15 PM 77.0 °F 55.4 °F 47% 30.16 in 10.0 mi NE 9.2 mph 18.4 mph N/A   Clear
1:35 PM 77.0 °F 55.4 °F 47% 30.15 in 10.0 mi East 9.2 mph - N/A   Clear
1:55 PM 77.0 °F 55.4 °F 47% 30.15 in 10.0 mi NE 8.1 mph - N/A   Clear
2:15 PM 77.0 °F 55.4 °F 47% 30.15 in 10.0 mi ENE 10.4 mph - N/A   Clear
2:35 PM 77.0 °F 53.6 °F 44% 30.14 in 10.0 mi Calm Calm - N/A   Clear
2:55 PM 78.8 °F 55.4 °F 44% 30.14 in 10.0 mi ENE 10.4 mph - N/A   Clear
3:15 PM 78.8 °F 55.4 °F 44% 30.13 in 10.0 mi NE 9.2 mph - N/A   Clear
3:35 PM 78.8 °F 55.4 °F 44% 30.12 in 10.0 mi NE 5.8 mph - N/A   Clear
3:55 PM 78.8 °F 55.4 °F 44% 30.12 in 10.0 mi ENE 6.9 mph - N/A   Clear
4:15 PM 78.8 °F 55.4 °F 44% 30.12 in 10.0 mi NE 11.5 mph - N/A   Clear
4:35 PM 78.8 °F 55.4 °F 44% 30.11 in 10.0 mi NNE 9.2 mph - N/A   Clear
4:55 PM 78.8 °F 55.4 °F 44% 30.11 in 10.0 mi ENE 6.9 mph - N/A   Clear
5:15 PM 78.8 °F 53.6 °F 42% 30.10 in 10.0 mi NE 12.7 mph - N/A   Clear
5:35 PM 78.8 °F 53.6 °F 42% 30.10 in 10.0 mi NE 9.2 mph - N/A   Clear
5:55 PM 78.8 °F 53.6 °F 42% 30.10 in 10.0 mi ENE 9.2 mph 16.1 mph N/A   Clear
6:15 PM 77.0 °F 51.8 °F 41% 30.10 in 10.0 mi NE 9.2 mph - N/A   Clear
6:55 PM 75.2 °F 51.8 °F 44% 30.10 in 10.0 mi NE 8.1 mph - N/A   Clear
7:15 PM 73.4 °F 51.8 °F 47% 30.10 in 10.0 mi NE 5.8 mph - N/A   Clear
7:35 PM 73.4 °F 53.6 °F 50% 30.10 in 10.0 mi NE 8.1 mph - N/A   Clear
7:55 PM 71.6 °F 53.6 °F 53% 30.11 in 10.0 mi NE 4.6 mph - N/A   Clear
8:35 PM 69.8 °F 53.6 °F 56% 30.11 in 10.0 mi ENE 4.6 mph - N/A   Clear
8:55 PM 68.0 °F 53.6 °F 60% 30.12 in 10.0 mi Calm Calm - N/A   Clear
9:15 PM 64.4 °F 53.6 °F 68% 30.13 in 10.0 mi Calm Calm - N/A   Clear
9:35 PM 64.4 °F 53.6 °F 68% 30.14 in 10.0 mi Calm Calm - N/A   Clear
9:55 PM 62.6 °F 53.6 °F 72% 30.14 in 10.0 mi Calm Calm - N/A   Clear
10:15 PM 62.6 °F 55.4 °F 77% 30.14 in 10.0 mi NE 3.5 mph - N/A   Clear
10:35 PM 62.6 °F 55.4 °F 77% 30.14 in 10.0 mi NE 4.6 mph - N/A   Clear
10:55 PM 62.6 °F 55.4 °F 77% 30.14 in 10.0 mi ENE 3.5 mph - N/A   Clear
11:35 PM 62.6 °F 55.4 °F 77% 30.13 in 10.0 mi ENE 3.5 mph - N/A   Clear